Location: Stilling
(56.0622°N, 9.9882°E)
Time: 00:36:01
(UTC+00:00)

Cosmos 1420 Rocket - Pass Details

Date: 13 July 2020
Orbit: 754 x 781 km, 74.0° (Epoch: 03 August)

Event Time Altitude Azimuth Distance (km) Brightness Sun altitude
Rises 21:15:31 0° 330° (NNW) 3,258 10.0 -7.5°
Reaches altitude 10° 21:17:54 10° 328° (NNW) 2,331 8.3 -7.7°
Maximum altitude 21:23:09 67° 247° (WSW) 845 4.3 -8.1°
Drops below altitude 10° 21:28:24 10° 166° (SSE) 2,330 5.9 -8.4°
Enters shadow 21:28:28 10° 166° (SSE) 2,356 5.9 -8.4°
